Weather History for Martinsburg, WV

Change the Weather History Date:

Sunday, November 3, 2013

  Actual Average Record
Temperature  
Mean Temperature 47 °F 48 °F  
Max Temperature 56 °F 60 °F 81 °F (2003)
Min Temperature 37 °F 37 °F 21 °F (1930)
Degree Days  
Heating Degree Days 18 17  
Month to date heating degree days 35 49  
Since 1 July heating degree days 432 495  
Cooling Degree Days 0 0  
Month to date cooling degree days 0 0  
Year to date cooling degree days 1057 895  
Moisture  
Dew Point 28 °F    
Average Humidity 44    
Maximum Humidity 65    
Minimum Humidity 22    
Precipitation  
Precipitation 0.00 in 0.10 in 1.21 in (1985)
Month to date precipitation 0.24 0.32  
Year to date precipitation 29.34 33.18  
Sea Level Pressure  
Sea Level Pressure 30.19 in    
Wind  
Wind Speed 10 mph (NNW)    
Max Wind Speed 20 mph    
Max Gust Speed 29 mph    
Visibility 10 miles    
Events      
T = Trace of Precipitation, MM = Missing Value Source: NWS Daily Summary

Daily Weather History Graph

Daily Weather History Graph

Search for Another Location

Airport:

Trip Planner

Search our weather history database for the weather conditions in past years. The results will help you decide how hot, cold, wet, or windy it might be!

Date:

Astronomy

Nov. 03, 2013 Rise Set
Actual Time 6:42 AM EST 5:07 PM EST
Civil Twilight 6:14 AM EST 5:35 PM EST
Nautical Twilight 5:42 AM EST 6:07 PM EST
Astronomical Twilight 5:11 AM EST 6:39 PM EST
Moon 6:44 AM EST (11/3) 5:21 PM EST (11/3)
Length of Visible Light 11h 21m
Length of Day
10h 25m
New Moon, 0% of the Moon is Illuminated
Nov 3
New Moon
Nov 10
First Quarter
Nov 17
Full
Nov 25
Last Quarter
Dec 2
New

Hourly Weather History & Observations

Time (EST) Temp. Windchill Dew Point Humidity Pressure Visibility Wind Dir Wind Speed Gust Speed Precip Events Conditions
12:53 AM 48.9 °F - 36.0 °F 61% 29.92 in 10.0 mi WNW 11.5 mph 18.4 mph N/A   Scattered Clouds
1:53 AM 48.9 °F - 36.0 °F 61% 29.93 in 10.0 mi WNW 11.5 mph - N/A   Scattered Clouds
1:53 AM 50.0 °F - 36.0 °F 59% 29.94 in 10.0 mi WNW 8.1 mph 16.1 mph N/A   Mostly Cloudy
2:53 AM 48.0 °F - 36.0 °F 63% 29.96 in 10.0 mi WNW 4.6 mph - N/A   Clear
3:53 AM 50.0 °F - 36.0 °F 59% 29.99 in 10.0 mi WNW 8.1 mph - N/A   Mostly Cloudy
4:53 AM 48.0 °F - 36.0 °F 63% 30.03 in 10.0 mi NNW 11.5 mph 19.6 mph N/A   Partly Cloudy
5:53 AM 46.9 °F - 36.0 °F 66% 30.07 in 10.0 mi NW 15.0 mph 20.7 mph N/A   Partly Cloudy
6:53 AM 46.0 °F 39.9 °F 36.0 °F 68% 30.11 in 10.0 mi North 13.8 mph 20.7 mph N/A   Mostly Cloudy
7:53 AM 46.9 °F - 35.1 °F 63% 30.17 in 10.0 mi NW 10.4 mph - N/A   Clear
8:53 AM 46.9 °F - 33.1 °F 59% 30.20 in 10.0 mi NNW 12.7 mph 21.9 mph N/A   Partly Cloudy
9:53 AM 48.9 °F - 30.9 °F 50% 30.22 in 10.0 mi North 12.7 mph 19.6 mph N/A   Clear
10:53 AM 51.1 °F - 30.0 °F 44% 30.25 in 10.0 mi NNW 12.7 mph - N/A   Clear
11:53 AM 52.0 °F - 27.0 °F 38% 30.25 in 10.0 mi North 9.2 mph - N/A   Clear
12:53 PM 54.0 °F - 24.1 °F 31% 30.23 in 10.0 mi NNW 11.5 mph 20.7 mph N/A   Clear
1:53 PM 55.0 °F - 19.0 °F 24% 30.24 in 10.0 mi North 16.1 mph 20.7 mph N/A   Clear
2:53 PM 55.9 °F - 18.0 °F 23% 30.25 in 10.0 mi NNW 11.5 mph 20.7 mph N/A   Clear
3:53 PM 54.0 °F - 15.1 °F 22% 30.27 in 10.0 mi NNW 13.8 mph 24.2 mph N/A   Clear
4:53 PM 52.0 °F - 18.0 °F 26% 30.29 in 10.0 mi NNW 8.1 mph - N/A   Clear
5:53 PM 48.9 °F - 19.0 °F 31% 30.31 in 10.0 mi North 6.9 mph - N/A   Clear
6:53 PM 46.0 °F 43.1 °F 21.0 °F 37% 30.34 in 10.0 mi NNW 5.8 mph - N/A   Clear
7:53 PM 45.0 °F 41.8 °F 23.0 °F 42% 30.37 in 10.0 mi NNW 5.8 mph - N/A   Clear
8:53 PM 45.0 °F 42.6 °F 21.9 °F 40% 30.40 in 10.0 mi NNW 4.6 mph - N/A   Clear
9:53 PM 43.0 °F 40.3 °F 21.9 °F 43% 30.43 in 10.0 mi NNW 4.6 mph - N/A   Clear
10:53 PM 39.0 °F 32.8 °F 21.9 °F 50% 30.47 in 10.0 mi North 9.2 mph - N/A   Clear